Time,TemperatureF,DewpointF,PressureIn,WindDirection,WindDirectionDegrees,WindSpeedMPH,WindSpeedGustMPH,Humidity,HourlyPrecipIn,Conditions,Clouds,dailyrainin,SolarRadiationWatts/m^2,SoftwareType,DateUTC
2013-06-13 00:03:00,77.3,63.0,29.82,North,359,0.0,4.0,61,0.00,,,0.00,0,Custom,2013-06-13 05:03:00,
2013-06-13 00:08:00,77.0,63.0,29.82,West,275,0.0,10.0,62,0.00,,,0.00,0,Custom,2013-06-13 05:08:00,
2013-06-13 00:13:00,76.7,63.0,29.82,WNW,294,0.0,3.0,63,0.00,,,0.00,0,Custom,2013-06-13 05:13:00,
2013-06-13 00:18:00,76.3,63.0,29.82,NNW,348,0.0,4.0,62,0.00,,,0.00,0,Custom,2013-06-13 05:18:00,
2013-06-13 00:23:00,75.9,63.0,29.82,North,0,5.0,9.0,63,0.00,,,0.00,0,Custom,2013-06-13 05:23:00,
2013-06-13 00:28:00,75.9,62.0,29.84,North,360,0.0,9.0,62,0.00,,,0.00,0,Custom,2013-06-13 05:28:00,
2013-06-13 00:33:00,75.3,61.0,29.84,NW,308,0.0,8.0,62,0.00,,,0.00,0,Custom,2013-06-13 05:33:00,
2013-06-13 00:38:00,74.8,61.0,29.85,West,267,0.0,12.0,63,0.00,,,0.00,0,Custom,2013-06-13 05:38:00,
2013-06-13 00:43:00,73.9,61.0,29.85,North,360,4.0,8.0,64,0.00,,,0.00,0,Custom,2013-06-13 05:43:00,
2013-06-13 00:48:00,73.3,61.0,29.85,North,354,0.0,10.0,64,0.00,,,0.00,0,Custom,2013-06-13 05:48:00,
2013-06-13 00:53:00,72.8,60.0,29.85,North,352,7.0,12.0,64,0.00,,,0.00,0,Custom,2013-06-13 05:53:00,
2013-06-13 00:58:00,72.4,60.0,29.85,North,351,1.0,7.0,65,0.00,,,0.00,0,Custom,2013-06-13 05:58:00,
2013-06-13 01:03:00,72.2,60.0,29.85,North,11,0.0,11.0,65,0.00,,,0.00,0,Custom,2013-06-13 06:03:00,
2013-06-13 01:08:00,71.8,59.0,29.85,NNE,31,0.0,9.0,64,0.00,,,0.00,0,Custom,2013-06-13 06:08:00,
2013-06-13 01:13:00,71.5,59.0,29.86,NW,316,0.0,6.0,65,0.00,,,0.00,0,Custom,2013-06-13 06:13:00,
2013-06-13 01:18:00,71.1,59.0,29.85,WNW,298,0.0,7.0,66,0.00,,,0.00,0,Custom,2013-06-13 06:18:00,
2013-06-13 01:23:00,70.8,59.0,29.86,North,0,0.0,5.0,66,0.00,,,0.00,0,Custom,2013-06-13 06:23:00,
2013-06-13 01:28:00,70.7,59.0,29.86,North,0,0.0,4.0,66,0.00,,,0.00,0,Custom,2013-06-13 06:28:00,
2013-06-13 01:33:00,70.4,59.0,29.86,North,0,0.0,3.0,66,0.00,,,0.00,0,Custom,2013-06-13 06:33:00,
2013-06-13 01:38:00,70.0,58.0,29.86,NNE,26,0.0,5.0,67,0.00,,,0.00,0,Custom,2013-06-13 06:38:00,
2013-06-13 01:43:00,70.0,58.0,29.86,NNE,19,3.0,5.0,66,0.00,,,0.00,0,Custom,2013-06-13 06:43:00,
2013-06-13 01:48:00,69.9,58.0,29.87,North,359,0.0,6.0,65,0.00,,,0.00,0,Custom,2013-06-13 06:48:00,
2013-06-13 01:53:00,69.7,58.0,29.87,NE,50,4.0,4.0,65,0.00,,,0.00,0,Custom,2013-06-13 06:53:00,
2013-06-13 01:58:00,69.7,57.0,29.88,NNW,335,0.0,6.0,65,0.00,,,0.00,0,Custom,2013-06-13 06:58:00,
2013-06-13 02:03:00,69.2,58.0,29.87,North,359,0.0,4.0,66,0.00,,,0.00,0,Custom,2013-06-13 07:03:00,
2013-06-13 02:08:00,69.5,57.0,29.87,West,270,5.0,6.0,65,0.00,,,0.00,0,Custom,2013-06-13 07:08:00,
2013-06-13 02:13:00,69.2,57.0,29.87,North,9,0.0,11.0,65,0.00,,,0.00,0,Custom,2013-06-13 07:13:00,
2013-06-13 02:18:00,68.7,57.0,29.88,NNW,333,0.0,12.0,66,0.00,,,0.00,0,Custom,2013-06-13 07:18:00,
2013-06-13 02:23:00,68.5,57.0,29.88,North,10,3.0,6.0,67,0.00,,,0.00,0,Custom,2013-06-13 07:23:00,
2013-06-13 02:28:00,68.3,57.0,29.88,West,272,0.0,6.0,67,0.00,,,0.00,0,Custom,2013-06-13 07:28:00,
2013-06-13 02:33:00,68.3,57.0,29.88,North,358,0.0,8.0,68,0.00,,,0.00,0,Custom,2013-06-13 07:33:00,
2013-06-13 02:38:00,68.3,58.0,29.88,NW,325,2.0,6.0,69,0.00,,,0.00,0,Custom,2013-06-13 07:38:00,
2013-06-13 02:43:00,68.1,57.0,29.88,North,359,0.0,6.0,69,0.00,,,0.00,0,Custom,2013-06-13 07:43:00,
2013-06-13 02:48:00,68.1,57.0,29.88,North,0,0.0,6.0,69,0.00,,,0.00,0,Custom,2013-06-13 07:48:00,
2013-06-13 02:53:00,67.4,57.0,29.88,North,4,0.0,4.0,70,0.00,,,0.00,0,Custom,2013-06-13 07:53:00,
2013-06-13 02:58:00,67.3,57.0,29.88,NE,37,0.0,6.0,70,0.00,,,0.00,0,Custom,2013-06-13 07:58:00,
2013-06-13 03:03:00,67.4,57.0,29.88,ENE,59,0.0,3.0,70,0.00,,,0.00,0,Custom,2013-06-13 08:03:00,
2013-06-13 03:08:00,67.2,57.0,29.88,North,360,0.0,4.0,70,0.00,,,0.00,0,Custom,2013-06-13 08:08:00,
2013-06-13 03:13:00,67.2,57.0,29.89,NE,55,0.0,5.0,71,0.00,,,0.00,0,Custom,2013-06-13 08:13:00,
2013-06-13 03:18:00,66.7,57.0,29.88,NNE,24,0.0,0.0,71,0.00,,,0.00,0,Custom,2013-06-13 08:18:00,
2013-06-13 03:23:00,66.5,57.0,29.88,North,2,0.0,5.0,71,0.00,,,0.00,0,Custom,2013-06-13 08:23:00,
2013-06-13 03:28:00,66.5,57.0,29.89,North,360,0.0,5.0,72,0.00,,,0.00,0,Custom,2013-06-13 08:28:00,
2013-06-13 03:33:00,66.0,57.0,29.89,NNE,13,4.0,5.0,72,0.00,,,0.00,0,Custom,2013-06-13 08:33:00,
2013-06-13 03:38:00,65.8,56.0,29.89,North,4,0.0,3.0,72,0.00,,,0.00,0,Custom,2013-06-13 08:38:00,
2013-06-13 03:43:00,65.8,57.0,29.89,North,9,4.0,5.0,73,0.00,,,0.00,0,Custom,2013-06-13 08:43:00,
2013-06-13 03:48:00,65.6,56.0,29.89,North,358,0.0,4.0,72,0.00,,,0.00,0,Custom,2013-06-13 08:48:00,
2013-06-13 03:53:00,65.6,56.0,29.89,North,353,0.0,4.0,72,0.00,,,0.00,0,Custom,2013-06-13 08:53:00,
2013-06-13 03:58:00,65.6,56.0,29.89,North,0,0.0,3.0,72,0.00,,,0.00,0,Custom,2013-06-13 08:58:00,
2013-06-13 04:03:00,65.5,56.0,29.89,North,350,0.0,2.0,72,0.00,,,0.00,0,Custom,2013-06-13 09:03:00,
2013-06-13 04:08:00,64.9,56.0,29.89,North,350,0.0,0.0,72,0.00,,,0.00,0,Custom,2013-06-13 09:08:00,
2013-06-13 04:13:00,64.5,56.0,29.90,North,350,0.0,0.0,73,0.00,,,0.00,0,Custom,2013-06-13 09:13:00,
2013-06-13 04:18:00,64.3,56.0,29.89,North,360,0.0,4.0,74,0.00,,,0.00,0,Custom,2013-06-13 09:18:00,
2013-06-13 04:23:00,64.4,56.0,29.89,North,360,0.0,0.0,74,0.00,,,0.00,0,Custom,2013-06-13 09:23:00,
2013-06-13 04:28:00,64.4,56.0,29.90,North,360,0.0,1.0,73,0.00,,,0.00,0,Custom,2013-06-13 09:28:00,
2013-06-13 04:33:00,63.9,55.0,29.90,North,360,0.0,0.0,73,0.00,,,0.00,0,Custom,2013-06-13 09:33:00,
2013-06-13 04:38:00,64.0,55.0,29.90,North,360,0.0,1.0,73,0.00,,,0.00,0,Custom,2013-06-13 09:38:00,
2013-06-13 04:43:00,63.7,55.0,29.90,North,359,0.0,3.0,74,0.00,,,0.00,0,Custom,2013-06-13 09:43:00,
2013-06-13 04:48:00,63.9,55.0,29.90,North,360,0.0,0.0,74,0.00,,,0.00,0,Custom,2013-06-13 09:48:00,
2013-06-13 04:53:00,63.6,55.0,29.90,North,360,0.0,2.0,74,0.00,,,0.00,0,Custom,2013-06-13 09:53:00,
2013-06-13 04:58:00,63.8,55.0,29.90,North,1,0.0,5.0,73,0.00,,,0.00,0,Custom,2013-06-13 09:58:00,
2013-06-13 05:03:00,63.8,55.0,29.91,West,277,2.0,2.0,73,0.00,,,0.00,0,Custom,2013-06-13 10:03:00,
2013-06-13 05:08:00,63.6,55.0,29.90,WNW,290,0.0,2.0,73,0.00,,,0.00,0,Custom,2013-06-13 10:08:00,
2013-06-13 05:13:00,63.4,55.0,29.90,WNW,290,0.0,1.0,74,0.00,,,0.00,0,Custom,2013-06-13 10:13:00,
2013-06-13 05:18:00,63.3,55.0,29.90,WNW,291,0.0,1.0,74,0.00,,,0.00,0,Custom,2013-06-13 10:18:00,
2013-06-13 05:23:00,63.3,55.0,29.90,North,0,0.0,1.0,74,0.00,,,0.00,0,Custom,2013-06-13 10:23:00,
2013-06-13 05:28:00,63.2,55.0,29.91,North,0,0.0,0.0,74,0.00,,,0.00,0,Custom,2013-06-13 10:28:00,
2013-06-13 05:33:00,63.1,55.0,29.90,North,0,0.0,3.0,74,0.00,,,0.00,0,Custom,2013-06-13 10:33:00,
2013-06-13 05:38:00,63.0,55.0,29.91,North,0,0.0,2.0,74,0.00,,,0.00,0,Custom,2013-06-13 10:38:00,
2013-06-13 05:43:00,62.7,55.0,29.91,NE,34,0.0,0.0,75,0.00,,,0.00,0,Custom,2013-06-13 10:43:00,
2013-06-13 05:48:00,62.3,55.0,29.91,NE,34,0.0,0.0,76,0.00,,,0.00,0,Custom,2013-06-13 10:48:00,
2013-06-13 05:53:00,62.3,55.0,29.91,NE,34,0.0,2.0,76,0.00,,,0.00,0,Custom,2013-06-13 10:53:00,
2013-06-13 05:58:00,62.3,55.0,29.91,NNE,33,2.0,0.0,77,0.00,,,0.00,0,Custom,2013-06-13 10:58:00,
2013-06-13 06:03:00,62.5,55.0,29.91,NNE,32,0.0,2.0,76,0.00,,,0.00,0,Custom,2013-06-13 11:03:00,
2013-06-13 06:08:00,62.5,55.0,29.91,NW,304,0.0,4.0,76,0.00,,,0.00,8.58,Custom,2013-06-13 11:08:00,
2013-06-13 06:13:00,62.6,55.0,29.92,NW,305,0.0,0.0,77,0.00,,,0.00,10.14,Custom,2013-06-13 11:13:00,
2013-06-13 06:18:00,62.7,55.0,29.92,NW,305,0.0,0.0,76,0.00,,,0.00,12.09,Custom,2013-06-13 11:18:00,
2013-06-13 06:23:00,62.7,55.0,29.92,North,0,0.0,3.0,77,0.00,,,0.00,13.26,Custom,2013-06-13 11:23:00,
2013-06-13 06:28:00,62.9,55.0,29.92,North,0,0.0,1.0,76,0.00,,,0.00,14.82,Custom,2013-06-13 11:28:00,
2013-06-13 06:33:00,62.9,55.0,29.92,North,0,0.0,1.0,76,0.00,,,0.00,16.38,Custom,2013-06-13 11:33:00,
2013-06-13 06:38:00,63.3,55.0,29.92,North,3,0.0,4.0,76,0.00,,,0.00,17.94,Custom,2013-06-13 11:38:00,
2013-06-13 06:43:00,63.3,56.0,29.92,North,4,0.0,2.0,76,0.00,,,0.00,19.5,Custom,2013-06-13 11:43:00,
2013-06-13 06:48:00,63.4,55.0,29.92,North,353,0.0,1.0,75,0.00,,,0.00,21.06,Custom,2013-06-13 11:48:00,
2013-06-13 06:53:00,63.9,56.0,29.92,North,10,0.0,5.0,76,0.00,,,0.00,22.23,Custom,2013-06-13 11:53:00,
2013-06-13 06:58:00,63.9,56.0,29.93,North,8,0.0,0.0,75,0.00,,,0.00,23.79,Custom,2013-06-13 11:58:00,
2013-06-13 07:03:00,64.2,56.0,29.93,NE,37,0.0,3.0,74,0.00,,,0.00,31.59,Custom,2013-06-13 12:03:00,
2013-06-13 07:08:00,64.4,56.0,29.93,North,8,0.0,4.0,74,0.00,,,0.00,26.13,Custom,2013-06-13 12:08:00,
2013-06-13 07:13:00,64.9,56.0,29.93,NNE,14,0.0,5.0,73,0.00,,,0.00,48.75,Custom,2013-06-13 12:13:00,
2013-06-13 07:18:00,66.0,56.0,29.93,North,2,0.0,3.0,71,0.00,,,0.00,109.98,Custom,2013-06-13 12:18:00,
2013-06-13 07:23:00,67.1,56.0,29.93,North,0,0.0,3.0,68,0.00,,,0.00,127.53,Custom,2013-06-13 12:23:00,
2013-06-13 07:28:00,67.2,55.0,29.93,North,360,0.0,5.0,66,0.00,,,0.00,146.25,Custom,2013-06-13 12:28:00,
2013-06-13 07:33:00,68.3,56.0,29.93,North,360,0.0,4.0,64,0.00,,,0.00,165.75,Custom,2013-06-13 12:33:00,
2013-06-13 07:38:00,68.3,55.0,29.93,North,360,0.0,3.0,64,0.00,,,0.00,185.25,Custom,2013-06-13 12:38:00,
2013-06-13 07:43:00,68.3,56.0,29.93,North,10,0.0,6.0,64,0.00,,,0.00,204.75,Custom,2013-06-13 12:43:00,
2013-06-13 07:48:00,68.8,56.0,29.93,North,360,0.0,5.0,64,0.00,,,0.00,225.81,Custom,2013-06-13 12:48:00,
2013-06-13 07:53:00,68.9,56.0,29.93,North,349,3.0,5.0,64,0.00,,,0.00,247.26,Custom,2013-06-13 12:53:00,
2013-06-13 07:58:00,69.6,57.0,29.94,North,360,0.0,3.0,64,0.00,,,0.00,261.3,Custom,2013-06-13 12:58:00,
2013-06-13 08:03:00,69.6,57.0,29.94,ENE,77,2.0,4.0,64,0.00,,,0.00,280.41,Custom,2013-06-13 13:03:00,
2013-06-13 08:08:00,70.7,58.0,29.94,NNE,28,0.0,2.0,63,0.00,,,0.00,298.35,Custom,2013-06-13 13:08:00,
2013-06-13 08:13:00,70.1,57.0,29.94,North,6,0.0,4.0,63,0.00,,,0.00,313.56,Custom,2013-06-13 13:13:00,
2013-06-13 08:18:00,70.7,57.0,29.94,NNE,19,7.0,7.0,62,0.00,,,0.00,329.94,Custom,2013-06-13 13:18:00,
2013-06-13 08:23:00,70.1,56.0,29.94,North,360,0.0,6.0,62,0.00,,,0.00,347.1,Custom,2013-06-13 13:23:00,
2013-06-13 08:28:00,70.9,58.0,29.95,North,11,0.0,2.0,63,0.00,,,0.00,365.82,Custom,2013-06-13 13:28:00,
2013-06-13 08:33:00,71.0,57.0,29.94,North,0,1.0,5.0,61,0.00,,,0.00,384.54,Custom,2013-06-13 13:33:00,
2013-06-13 08:38:00,70.9,58.0,29.94,NNW,344,0.0,4.0,63,0.00,,,0.00,387.66,Custom,2013-06-13 13:38:00,
2013-06-13 08:43:00,71.6,58.0,29.94,North,360,0.0,5.0,63,0.00,,,0.00,388.44,Custom,2013-06-13 13:43:00,
2013-06-13 08:48:00,71.9,58.0,29.95,NNE,19,0.0,2.0,61,0.00,,,0.00,429,Custom,2013-06-13 13:48:00,
2013-06-13 08:53:00,72.4,58.0,29.94,NE,53,0.0,4.0,61,0.00,,,0.00,429.78,Custom,2013-06-13 13:53:00,
2013-06-13 08:58:00,73.4,59.0,29.95,NE,47,0.0,0.0,61,0.00,,,0.00,457.47,Custom,2013-06-13 13:58:00,
2013-06-13 09:03:00,74.2,59.0,29.95,NE,47,0.0,0.0,59,0.00,,,0.00,472.29,Custom,2013-06-13 14:03:00,
2013-06-13 09:08:00,73.8,58.0,29.95,NNW,328,0.0,3.0,57,0.00,,,0.00,489.45,Custom,2013-06-13 14:08:00,
2013-06-13 09:13:00,75.2,61.0,29.95,NNE,24,0.0,1.0,61,0.00,,,0.00,505.05,Custom,2013-06-13 14:13:00,
2013-06-13 09:18:00,75.7,59.0,29.96,NNE,32,0.0,1.0,56,0.00,,,0.00,516.36,Custom,2013-06-13 14:18:00,
2013-06-13 09:23:00,74.8,59.0,29.95,NNW,348,0.0,0.0,57,0.00,,,0.00,536.25,Custom,2013-06-13 14:23:00,
2013-06-13 09:28:00,75.0,59.0,29.95,ENE,69,0.0,4.0,57,0.00,,,0.00,545.22,Custom,2013-06-13 14:28:00,
2013-06-13 09:33:00,75.3,59.0,29.95,East,82,0.0,5.0,58,0.00,,,0.00,565.5,Custom,2013-06-13 14:33:00,
2013-06-13 09:38:00,76.1,61.0,29.95,North,10,0.0,4.0,59,0.00,,,0.00,580.32,Custom,2013-06-13 14:38:00,
2013-06-13 09:43:00,75.5,59.0,29.95,NE,44,0.0,2.0,57,0.00,,,0.00,594.75,Custom,2013-06-13 14:43:00,
2013-06-13 09:48:00,75.5,59.0,29.95,ENE,63,0.0,1.0,57,0.00,,,0.00,608.01,Custom,2013-06-13 14:48:00,
2013-06-13 09:53:00,77.0,62.0,29.95,ENE,61,0.0,1.0,59,0.00,,,0.00,622.83,Custom,2013-06-13 14:53:00,
2013-06-13 09:58:00,77.6,60.0,29.95,NE,42,0.0,1.0,55,0.00,,,0.00,636.48,Custom,2013-06-13 14:58:00,
2013-06-13 10:03:00,77.8,62.0,29.95,ENE,77,5.0,5.0,58,0.00,,,0.00,649.74,Custom,2013-06-13 15:03:00,
2013-06-13 10:08:00,76.4,60.0,29.95,NNE,17,0.0,1.0,56,0.00,,,0.00,662.61,Custom,2013-06-13 15:08:00,
2013-06-13 10:13:00,77.2,60.0,29.95,NNE,19,0.0,1.0,56,0.00,,,0.00,676.65,Custom,2013-06-13 15:13:00,
2013-06-13 10:18:00,78.5,61.0,29.96,NNE,19,0.0,1.0,55,0.00,,,0.00,689.52,Custom,2013-06-13 15:18:00,
2013-06-13 10:23:00,78.0,60.0,29.95,North,7,0.0,2.0,55,0.00,,,0.00,696.54,Custom,2013-06-13 15:23:00,
2013-06-13 10:28:00,78.3,60.0,29.96,North,7,0.0,0.0,54,0.00,,,0.00,717.99,Custom,2013-06-13 15:28:00,
2013-06-13 10:33:00,78.0,60.0,29.96,North,6,0.0,1.0,54,0.00,,,0.00,727.35,Custom,2013-06-13 15:33:00,
2013-06-13 10:38:00,78.5,60.0,29.96,North,2,0.0,5.0,54,0.00,,,0.00,737.49,Custom,2013-06-13 15:38:00,
2013-06-13 10:43:00,79.4,62.0,29.96,NE,39,0.0,0.0,55,0.00,,,0.00,726.57,Custom,2013-06-13 15:43:00,
2013-06-13 10:48:00,78.8,60.0,29.96,North,359,0.0,3.0,52,0.00,,,0.00,756.99,Custom,2013-06-13 15:48:00,
2013-06-13 10:53:00,79.5,63.0,29.96,North,359,0.0,0.0,56,0.00,,,0.00,770.25,Custom,2013-06-13 15:53:00,
2013-06-13 10:58:00,79.1,61.0,29.96,ENE,72,0.0,6.0,54,0.00,,,0.00,787.8,Custom,2013-06-13 15:58:00,
2013-06-13 11:03:00,78.7,61.0,29.96,ESE,108,0.0,3.0,55,0.00,,,0.00,798.33,Custom,2013-06-13 16:03:00,
2013-06-13 11:08:00,80.3,65.0,29.96,NNW,345,0.0,3.0,59,0.00,,,0.00,797.55,Custom,2013-06-13 16:08:00,
2013-06-13 11:13:00,79.8,61.0,29.96,NNW,334,0.0,3.0,53,0.00,,,0.00,794.04,Custom,2013-06-13 16:13:00,
2013-06-13 11:18:00,79.4,62.0,29.96,North,360,0.0,1.0,56,0.00,,,0.00,804.96,Custom,2013-06-13 16:18:00,
2013-06-13 11:23:00,80.1,63.0,29.96,ENE,71,1.0,2.0,56,0.00,,,0.00,836.55,Custom,2013-06-13 16:23:00,
2013-06-13 11:28:00,80.3,62.0,29.96,North,359,0.0,5.0,54,0.00,,,0.00,827.97,Custom,2013-06-13 16:28:00,
2013-06-13 11:33:00,80.9,63.0,29.96,East,98,3.0,3.0,55,0.00,,,0.00,851.37,Custom,2013-06-13 16:33:00,
2013-06-13 11:38:00,81.9,64.0,29.96,East,91,0.0,3.0,54,0.00,,,0.00,860.34,Custom,2013-06-13 16:38:00,
2013-06-13 11:43:00,81.1,61.0,29.96,East,83,0.0,7.0,51,0.00,,,0.00,868.53,Custom,2013-06-13 16:43:00,
2013-06-13 11:48:00,82.1,62.0,29.96,ESE,102,3.0,3.0,51,0.00,,,0.00,884.13,Custom,2013-06-13 16:48:00,
2013-06-13 11:53:00,82.4,66.0,29.96,East,101,0.0,4.0,58,0.00,,,0.00,877.5,Custom,2013-06-13 16:53:00,
2013-06-13 11:58:00,82.9,63.0,29.96,East,99,1.0,0.0,51,0.00,,,0.00,886.47,Custom,2013-06-13 16:58:00,
2013-06-13 12:03:00,81.4,60.0,29.95,NNE,14,0.0,6.0,49,0.00,,,0.00,895.44,Custom,2013-06-13 17:03:00,
2013-06-13 12:08:00,81.6,62.0,29.95,East,98,3.0,6.0,51,0.00,,,0.00,874.38,Custom,2013-06-13 17:08:00,
2013-06-13 12:13:00,81.5,63.0,29.95,East,82,0.0,7.0,53,0.00,,,0.00,895.83,Custom,2013-06-13 17:13:00,
2013-06-13 12:18:00,81.6,62.0,29.95,East,81,0.0,8.0,52,0.00,,,0.00,909.87,Custom,2013-06-13 17:18:00,
2013-06-13 12:23:00,81.8,62.0,29.95,ENE,73,0.0,5.0,50,0.00,,,0.00,920.4,Custom,2013-06-13 17:23:00,
2013-06-13 12:28:00,82.1,63.0,29.95,ESE,116,2.0,4.0,52,0.00,,,0.00,918.45,Custom,2013-06-13 17:28:00,
2013-06-13 12:33:00,81.5,62.0,29.95,ESE,108,3.0,6.0,51,0.00,,,0.00,928.2,Custom,2013-06-13 17:33:00,
2013-06-13 12:38:00,81.9,62.0,29.95,South,182,0.0,7.0,52,0.00,,,0.00,923.52,Custom,2013-06-13 17:38:00,
2013-06-13 12:43:00,82.7,63.0,29.94,West,273,0.0,0.0,51,0.00,,,0.00,918.84,Custom,2013-06-13 17:43:00,
2013-06-13 12:48:00,82.4,63.0,29.94,ENE,71,2.0,7.0,52,0.00,,,0.00,918.45,Custom,2013-06-13 17:48:00,
2013-06-13 12:53:00,83.1,63.0,29.94,East,85,3.0,5.0,51,0.00,,,0.00,929.76,Custom,2013-06-13 17:53:00,
2013-06-13 12:58:00,82.9,62.0,29.94,NNW,347,2.0,6.0,50,0.00,,,0.00,929.37,Custom,2013-06-13 17:58:00,
2013-06-13 13:03:00,83.1,63.0,29.94,ENE,77,0.0,3.0,51,0.00,,,0.00,929.37,Custom,2013-06-13 18:03:00,
2013-06-13 13:08:00,83.4,64.0,29.94,ENE,67,0.0,4.0,52,0.00,,,0.00,808.47,Custom,2013-06-13 18:08:00,
2013-06-13 13:13:00,83.3,62.0,29.93,NNE,29,0.0,3.0,49,0.00,,,0.00,770.64,Custom,2013-06-13 18:13:00,
2013-06-13 13:18:00,84.1,65.0,29.93,NNW,343,0.0,0.0,53,0.00,,,0.00,767.52,Custom,2013-06-13 18:18:00,
2013-06-13 13:23:00,83.7,65.0,29.93,North,349,0.0,7.0,54,0.00,,,0.00,770.64,Custom,2013-06-13 18:23:00,
2013-06-13 13:28:00,84.8,66.0,29.93,North,354,0.0,0.0,54,0.00,,,0.00,753.09,Custom,2013-06-13 18:28:00,
2013-06-13 13:33:00,84.6,64.0,29.93,ENE,59,0.0,0.0,50,0.00,,,0.00,787.8,Custom,2013-06-13 18:33:00,
2013-06-13 13:38:00,85.6,63.0,29.93,ENE,58,0.0,0.0,47,0.00,,,0.00,751.14,Custom,2013-06-13 18:38:00,
2013-06-13 13:43:00,85.9,65.0,29.94,ENE,60,0.0,0.0,50,0.00,,,0.00,768.69,Custom,2013-06-13 18:43:00,
2013-06-13 13:48:00,85.3,62.0,29.94,East,90,0.0,1.0,46,0.00,,,0.00,785.07,Custom,2013-06-13 18:48:00,
2013-06-13 13:53:00,85.2,63.0,29.94,East,90,0.0,3.0,48,0.00,,,0.00,721.89,Custom,2013-06-13 18:53:00,
2013-06-13 13:58:00,85.0,61.0,29.93,East,88,0.0,4.0,45,0.00,,,0.00,741.39,Custom,2013-06-13 18:58:00,
2013-06-13 14:03:00,84.8,61.0,29.93,East,90,0.0,4.0,45,0.00,,,0.00,764.4,Custom,2013-06-13 19:03:00,
2013-06-13 14:08:00,85.4,62.0,29.92,East,90,0.0,4.0,46,0.00,,,0.00,775.71,Custom,2013-06-13 19:08:00,
2013-06-13 14:13:00,85.2,65.0,29.92,East,92,0.0,3.0,51,0.00,,,0.00,776.1,Custom,2013-06-13 19:13:00,
2013-06-13 14:18:00,85.3,65.0,29.92,ENE,59,0.0,0.0,50,0.00,,,0.00,748.8,Custom,2013-06-13 19:18:00,
2013-06-13 14:23:00,86.2,62.0,29.92,ENE,66,0.0,0.0,45,0.00,,,0.00,733.98,Custom,2013-06-13 19:23:00,
2013-06-13 14:28:00,85.5,63.0,29.92,East,80,0.0,4.0,48,0.00,,,0.00,749.97,Custom,2013-06-13 19:28:00,
2013-06-13 14:33:00,84.9,62.0,29.92,ENE,75,0.0,4.0,46,0.00,,,0.00,764.01,Custom,2013-06-13 19:33:00,
2013-06-13 14:38:00,85.2,64.0,29.93,ESE,114,0.0,3.0,49,0.00,,,0.00,748.41,Custom,2013-06-13 19:38:00,
2013-06-13 14:43:00,86.9,64.0,29.92,ESE,114,0.0,0.0,47,0.00,,,0.00,746.46,Custom,2013-06-13 19:43:00,
2013-06-13 14:48:00,86.2,64.0,29.93,ESE,102,0.0,3.0,48,0.00,,,0.00,767.13,Custom,2013-06-13 19:48:00,
2013-06-13 14:53:00,86.2,61.0,29.93,SSE,147,0.0,0.0,43,0.00,,,0.00,751.53,Custom,2013-06-13 19:53:00,
2013-06-13 14:58:00,86.7,62.0,29.93,SE,136,0.0,0.0,44,0.00,,,0.00,774.54,Custom,2013-06-13 19:58:00,
2013-06-13 15:03:00,86.7,65.0,29.92,SE,130,0.0,4.0,49,0.00,,,0.00,767.13,Custom,2013-06-13 20:03:00,
2013-06-13 15:08:00,85.5,63.0,29.92,ENE,74,0.0,2.0,46,0.00,,,0.00,758.94,Custom,2013-06-13 20:08:00,
2013-06-13 15:13:00,86.8,64.0,29.92,ENE,71,0.0,4.0,48,0.00,,,0.00,772.98,Custom,2013-06-13 20:13:00,
2013-06-13 15:18:00,86.7,63.0,29.93,ENE,68,0.0,0.0,46,0.00,,,0.00,788.97,Custom,2013-06-13 20:18:00,
2013-06-13 15:23:00,87.5,63.0,29.92,ENE,68,0.0,0.0,45,0.00,,,0.00,633.75,Custom,2013-06-13 20:23:00,
2013-06-13 15:28:00,87.0,65.0,29.92,ENE,70,0.0,3.0,49,0.00,,,0.00,735.15,Custom,2013-06-13 20:28:00,
2013-06-13 15:33:00,86.9,63.0,29.92,East,87,0.0,0.0,45,0.00,,,0.00,754.26,Custom,2013-06-13 20:33:00,
2013-06-13 15:38:00,88.2,67.0,29.92,East,87,0.0,0.0,49,0.00,,,0.00,722.28,Custom,2013-06-13 20:38:00,
2013-06-13 15:43:00,86.8,62.0,29.93,SSE,150,0.0,3.0,44,0.00,,,0.00,592.8,Custom,2013-06-13 20:43:00,
2013-06-13 15:48:00,86.7,63.0,29.92,SSE,165,0.0,4.0,46,0.00,,,0.00,534.69,Custom,2013-06-13 20:48:00,
2013-06-13 15:53:00,87.0,66.0,29.92,SSE,164,0.0,0.0,50,0.00,,,0.00,513.63,Custom,2013-06-13 20:53:00,
2013-06-13 15:58:00,86.8,66.0,29.91,SSE,164,0.0,0.0,50,0.00,,,0.00,520.65,Custom,2013-06-13 20:58:00,
2013-06-13 16:03:00,86.2,66.0,29.91,South,177,0.0,5.0,50,0.00,,,0.00,357.24,Custom,2013-06-13 21:03:00,
2013-06-13 16:08:00,85.7,64.0,29.91,South,176,0.0,0.0,48,0.00,,,0.00,321.75,Custom,2013-06-13 21:08:00,
2013-06-13 16:13:00,85.1,65.0,29.91,South,176,0.0,0.0,51,0.00,,,0.00,292.89,Custom,2013-06-13 21:13:00,
2013-06-13 16:18:00,84.8,64.0,29.92,South,176,0.0,0.0,50,0.00,,,0.00,265.98,Custom,2013-06-13 21:18:00,
2013-06-13 16:23:00,84.7,65.0,29.92,South,176,0.0,0.0,51,0.00,,,0.00,271.44,Custom,2013-06-13 21:23:00,
2013-06-13 16:28:00,84.6,64.0,29.92,South,176,0.0,0.0,51,0.00,,,0.00,281.19,Custom,2013-06-13 21:28:00,
2013-06-13 16:33:00,84.1,64.0,29.91,South,176,0.0,0.0,50,0.00,,,0.00,271.44,Custom,2013-06-13 21:33:00,
2013-06-13 16:38:00,83.7,65.0,29.91,East,84,0.0,2.0,53,0.00,,,0.00,293.67,Custom,2013-06-13 21:38:00,
2013-06-13 16:43:00,83.4,64.0,29.91,East,84,2.0,0.0,53,0.00,,,0.00,267.15,Custom,2013-06-13 21:43:00,
2013-06-13 16:48:00,83.7,65.0,29.91,East,86,0.0,2.0,53,0.00,,,0.00,222.3,Custom,2013-06-13 21:48:00,
2013-06-13 16:53:00,83.4,65.0,29.91,East,86,0.0,2.0,55,0.00,,,0.00,198.12,Custom,2013-06-13 21:53:00,
2013-06-13 16:58:00,82.8,64.0,29.91,East,97,0.0,2.0,54,0.00,,,0.00,200.85,Custom,2013-06-13 21:58:00,
2013-06-13 17:03:00,82.7,64.0,29.91,East,97,0.0,2.0,53,0.00,,,0.00,220.74,Custom,2013-06-13 22:03:00,
2013-06-13 17:08:00,82.9,66.0,29.91,East,97,0.0,0.0,56,0.00,,,0.00,218.01,Custom,2013-06-13 22:08:00,
2013-06-13 17:13:00,82.9,65.0,29.91,East,96,0.0,0.0,56,0.00,,,0.00,252.72,Custom,2013-06-13 22:13:00,
2013-06-13 17:18:00,83.4,66.0,29.92,East,96,0.0,0.0,56,0.00,,,0.00,300.3,Custom,2013-06-13 22:18:00,
2013-06-13 17:23:00,84.0,67.0,29.94,East,96,0.0,0.0,58,0.00,,,0.00,302.64,Custom,2013-06-13 22:23:00,
2013-06-13 17:28:00,84.2,66.0,29.95,East,94,2.0,0.0,55,0.00,,,0.00,252.33,Custom,2013-06-13 22:28:00,
2013-06-13 17:33:00,84.0,67.0,29.94,East,94,0.0,3.0,56,0.00,,,0.00,214.11,Custom,2013-06-13 22:33:00,
2013-06-13 17:38:00,82.9,65.0,29.94,East,93,0.0,0.0,54,0.00,,,0.00,185.25,Custom,2013-06-13 22:38:00,
2013-06-13 17:43:00,82.7,65.0,29.94,East,93,0.0,0.0,55,0.00,,,0.00,179.01,Custom,2013-06-13 22:43:00,
2013-06-13 17:48:00,82.3,65.0,29.93,NNW,339,0.0,2.0,56,0.00,,,0.00,168.48,Custom,2013-06-13 22:48:00,
2013-06-13 17:53:00,82.0,64.0,29.93,NE,52,0.0,2.0,56,0.00,,,0.00,165.75,Custom,2013-06-13 22:53:00,
2013-06-13 17:58:00,81.9,64.0,29.92,East,83,0.0,4.0,55,0.00,,,0.00,182.52,Custom,2013-06-13 22:58:00,
2013-06-13 18:03:00,82.1,66.0,29.93,East,83,0.0,0.0,58,0.00,,,0.00,192.66,Custom,2013-06-13 23:03:00,
2013-06-13 18:08:00,82.2,64.0,29.92,ESE,102,0.0,3.0,55,0.00,,,0.00,206.31,Custom,2013-06-13 23:08:00,
2013-06-13 18:13:00,82.2,65.0,29.92,East,82,0.0,6.0,56,0.00,,,0.00,172.38,Custom,2013-06-13 23:13:00,
2013-06-13 18:18:00,81.2,64.0,29.91,East,87,0.0,6.0,56,0.00,,,0.00,125.58,Custom,2013-06-13 23:18:00,
2013-06-13 18:23:00,81.1,63.0,29.91,East,90,0.0,3.0,55,0.00,,,0.00,115.83,Custom,2013-06-13 23:23:00,
2013-06-13 18:28:00,80.9,64.0,29.90,NE,56,0.0,5.0,55,0.00,,,0.00,113.49,Custom,2013-06-13 23:28:00,
2013-06-13 18:33:00,80.2,63.0,29.89,ENE,74,0.0,6.0,56,0.00,,,0.00,113.49,Custom,2013-06-13 23:33:00,
2013-06-13 18:38:00,80.1,64.0,29.89,ENE,74,0.0,3.0,58,0.00,,,0.00,105.69,Custom,2013-06-13 23:38:00,
2013-06-13 18:43:00,80.0,65.0,29.89,ENE,74,0.0,2.0,60,0.00,,,0.00,99.06,Custom,2013-06-13 23:43:00,
2013-06-13 18:48:00,79.5,64.0,29.90,ENE,74,0.0,0.0,60,0.00,,,0.00,92.43,Custom,2013-06-13 23:48:00,
2013-06-13 18:53:00,79.4,64.0,29.91,ENE,74,0.0,0.0,60,0.00,,,0.00,84.63,Custom,2013-06-13 23:53:00,
2013-06-13 18:58:00,79.2,65.0,29.91,ENE,73,0.0,0.0,63,0.00,,,0.00,79.56,Custom,2013-06-13 23:58:00,
2013-06-13 19:03:00,79.0,65.0,29.91,NE,45,0.0,0.0,62,0.00,,,0.00,78.39,Custom,2013-06-14 00:03:00,
2013-06-13 19:08:00,78.9,65.0,29.91,NE,52,0.0,2.0,62,0.00,,,0.00,79.17,Custom,2013-06-14 00:08:00,
2013-06-13 19:13:00,78.8,65.0,29.91,ENE,78,0.0,2.0,63,0.00,,,0.00,78.39,Custom,2013-06-14 00:13:00,
2013-06-13 19:18:00,78.8,65.0,29.91,ENE,78,0.0,0.0,63,0.00,,,0.00,72.93,Custom,2013-06-14 00:18:00,
2013-06-13 19:23:00,78.7,65.0,29.91,East,79,0.0,0.0,63,0.00,,,0.00,64.35,Custom,2013-06-14 00:23:00,
2013-06-13 19:28:00,78.4,65.0,29.91,ENE,78,0.0,0.0,63,0.00,,,0.00,62.4,Custom,2013-06-14 00:28:00,
2013-06-13 19:33:00,78.4,64.0,29.91,ENE,78,0.0,2.0,61,0.00,,,0.00,62.01,Custom,2013-06-14 00:33:00,
2013-06-13 19:38:00,78.5,65.0,29.91,East,79,0.0,2.0,64,0.00,,,0.00,58.11,Custom,2013-06-14 00:38:00,
2013-06-13 19:43:00,78.3,64.0,29.90,East,88,0.0,3.0,62,0.00,,,0.00,52.65,Custom,2013-06-14 00:43:00,
2013-06-13 19:48:00,78.1,65.0,29.90,East,88,0.0,3.0,63,0.00,,,0.00,47.97,Custom,2013-06-14 00:48:00,
2013-06-13 19:53:00,77.8,64.0,29.90,ENE,68,0.0,2.0,63,0.00,,,0.00,42.9,Custom,2013-06-14 00:53:00,
2013-06-13 19:58:00,77.6,64.0,29.89,East,86,0.0,4.0,64,0.00,,,0.00,38.61,Custom,2013-06-14 00:58:00,
2013-06-13 20:03:00,77.3,64.0,29.89,East,86,0.0,0.0,64,0.00,,,0.00,34.32,Custom,2013-06-14 01:03:00,
2013-06-13 20:08:00,77.0,64.0,29.88,East,86,0.0,0.0,65,0.00,,,0.00,30.42,Custom,2013-06-14 01:08:00,
2013-06-13 20:13:00,76.7,65.0,29.89,East,86,0.0,0.0,67,0.00,,,0.00,26.13,Custom,2013-06-14 01:13:00,
2013-06-13 20:18:00,76.4,64.0,29.88,East,86,0.0,0.0,67,0.00,,,0.00,22.23,Custom,2013-06-14 01:18:00,
2013-06-13 20:23:00,76.1,65.0,29.87,East,86,0.0,0.0,68,0.00,,,0.00,19.5,Custom,2013-06-14 01:23:00,
2013-06-13 20:28:00,75.7,64.0,29.87,East,86,0.0,0.0,68,0.00,,,0.00,16.38,Custom,2013-06-14 01:28:00,
2013-06-13 20:33:00,75.5,64.0,29.87,East,86,0.0,0.0,68,0.00,,,0.00,12.48,Custom,2013-06-14 01:33:00,
2013-06-13 20:38:00,75.2,64.0,29.86,East,86,0.0,0.0,68,0.00,,,0.00,13.26,Custom,2013-06-14 01:38:00,
2013-06-13 20:43:00,74.9,64.0,29.87,East,86,0.0,0.0,70,0.00,,,0.00,13.26,Custom,2013-06-14 01:43:00,
2013-06-13 20:48:00,74.7,64.0,29.86,East,86,0.0,0.0,69,0.00,,,0.00,10.92,Custom,2013-06-14 01:48:00,
2013-06-13 20:53:00,74.1,64.0,29.86,East,86,0.0,0.0,71,0.00,,,0.00,0,Custom,2013-06-14 01:53:00,
2013-06-13 20:58:00,73.4,64.0,29.87,East,86,0.0,0.0,72,0.00,,,0.00,0,Custom,2013-06-14 01:58:00,
2013-06-13 21:03:00,73.0,64.0,29.86,East,86,0.0,0.0,73,0.00,,,0.00,0,Custom,2013-06-14 02:03:00,
2013-06-13 21:08:00,72.4,64.0,29.86,East,86,0.0,0.0,74,0.00,,,0.00,0,Custom,2013-06-14 02:08:00,
2013-06-13 21:13:00,71.8,64.0,29.86,East,86,0.0,0.0,75,0.00,,,0.00,0,Custom,2013-06-14 02:13:00,
2013-06-13 21:18:00,71.3,64.0,29.85,East,86,0.0,0.0,77,0.00,,,0.00,0,Custom,2013-06-14 02:18:00,
2013-06-13 21:23:00,70.9,63.0,29.86,East,86,0.0,0.0,77,0.00,,,0.00,0,Custom,2013-06-14 02:23:00,
2013-06-13 21:28:00,70.5,64.0,29.86,East,86,0.0,0.0,78,0.00,,,0.00,0,Custom,2013-06-14 02:28:00,
2013-06-13 21:33:00,70.1,63.0,29.85,East,86,0.0,0.0,79,0.00,,,0.00,0,Custom,2013-06-14 02:33:00,
2013-06-13 21:38:00,69.8,64.0,29.85,East,86,0.0,0.0,80,0.00,,,0.00,0,Custom,2013-06-14 02:38:00,
2013-06-13 21:43:00,69.6,63.0,29.85,East,86,0.0,0.0,80,0.00,,,0.00,0,Custom,2013-06-14 02:43:00,
2013-06-13 21:48:00,69.3,64.0,29.85,East,86,0.0,0.0,82,0.00,,,0.00,0,Custom,2013-06-14 02:48:00,
2013-06-13 21:53:00,69.2,64.0,29.85,East,86,0.0,0.0,82,0.00,,,0.00,0,Custom,2013-06-14 02:53:00,
2013-06-13 21:58:00,69.5,64.0,29.86,East,86,0.0,0.0,82,0.00,,,0.00,0,Custom,2013-06-14 02:58:00,
2013-06-13 22:03:00,69.3,63.0,29.86,East,86,0.0,0.0,81,0.00,,,0.00,0,Custom,2013-06-14 03:03:00,
2013-06-13 22:08:00,69.1,63.0,29.86,East,86,0.0,0.0,81,0.00,,,0.00,0,Custom,2013-06-14 03:08:00,
2013-06-13 22:13:00,68.9,63.0,29.86,East,86,0.0,0.0,82,0.00,,,0.00,0,Custom,2013-06-14 03:13:00,
2013-06-13 22:18:00,68.6,63.0,29.86,East,86,0.0,0.0,82,0.00,,,0.00,0,Custom,2013-06-14 03:18:00,
2013-06-13 22:23:00,68.3,63.0,29.86,East,86,0.0,0.0,82,0.00,,,0.00,0,Custom,2013-06-14 03:23:00,
2013-06-13 22:28:00,68.2,63.0,29.86,East,86,0.0,0.0,83,0.00,,,0.00,0,Custom,2013-06-14 03:28:00,
2013-06-13 22:33:00,67.9,63.0,29.86,East,86,0.0,0.0,84,0.00,,,0.00,0,Custom,2013-06-14 03:33:00,
2013-06-13 22:38:00,67.8,63.0,29.87,East,86,0.0,0.0,84,0.00,,,0.00,0,Custom,2013-06-14 03:38:00,
2013-06-13 22:43:00,68.0,63.0,29.87,East,86,0.0,0.0,84,0.00,,,0.00,0,Custom,2013-06-14 03:43:00,
2013-06-13 22:48:00,68.0,63.0,29.88,East,86,0.0,0.0,84,0.00,,,0.00,0,Custom,2013-06-14 03:48:00,
2013-06-13 22:53:00,67.8,63.0,29.88,East,86,0.0,0.0,84,0.00,,,0.00,0,Custom,2013-06-14 03:53:00,
2013-06-13 22:58:00,67.5,63.0,29.88,East,86,0.0,0.0,84,0.00,,,0.00,0,Custom,2013-06-14 03:58:00,
2013-06-13 23:01:00,67.5,63.0,29.88,East,86,0.0,0.0,84,0.00,,,0.00,0,Custom,2013-06-14 04:01:00,
2013-06-13 23:02:00,67.5,63.0,29.88,East,86,0.0,0.0,84,0.00,,,0.00,0,Custom,2013-06-14 04:02:00,
2013-06-13 23:03:00,67.3,63.0,29.88,East,86,0.0,0.0,85,0.00,,,0.00,0,Custom,2013-06-14 04:03:00,
2013-06-13 23:08:00,67.3,63.0,29.88,East,86,0.0,0.0,85,0.00,,,0.00,0,Custom,2013-06-14 04:08:00,
2013-06-13 23:13:00,67.1,62.0,29.88,East,86,0.0,0.0,85,0.00,,,0.00,0,Custom,2013-06-14 04:13:00,
2013-06-13 23:18:00,66.6,62.0,29.88,East,86,0.0,0.0,86,0.00,,,0.00,0,Custom,2013-06-14 04:18:00,
2013-06-13 23:23:00,66.6,62.0,29.88,East,86,0.0,0.0,86,0.00,,,0.00,0,Custom,2013-06-14 04:23:00,
2013-06-13 23:28:00,66.5,62.0,29.88,East,86,0.0,0.0,86,0.00,,,0.00,0,Custom,2013-06-14 04:28:00,
2013-06-13 23:33:00,66.3,62.0,29.88,East,86,0.0,0.0,87,0.00,,,0.00,0,Custom,2013-06-14 04:33:00,
2013-06-13 23:38:00,66.2,62.0,29.88,East,86,0.0,0.0,87,0.00,,,0.00,0,Custom,2013-06-14 04:38:00,
2013-06-13 23:43:00,66.0,62.0,29.88,East,86,0.0,0.0,87,0.00,,,0.00,0,Custom,2013-06-14 04:43:00,
2013-06-13 23:48:00,65.8,62.0,29.88,East,86,0.0,0.0,88,0.00,,,0.00,0,Custom,2013-06-14 04:48:00,
2013-06-13 23:53:00,65.7,62.0,29.89,East,86,0.0,0.0,89,0.00,,,0.00,0,Custom,2013-06-14 04:53:00,
2013-06-13 23:58:00,65.6,62.0,29.89,East,86,0.0,0.0,89,0.00,,,0.00,0,Custom,2013-06-14 04:58:00,